Weather History for Dansville, NY

Change the Weather History Date:

Friday, February 15, 2013

  Actual Average Record
Temperature  
Mean Temperature 34 °F -  
Max Temperature 41 °F 33 °F 65 °F (1949)
Min Temperature 27 °F 17 °F -7 °F (1970)
Degree Days  
Heating Degree Days 30    
Moisture  
Dew Point 23 °F    
Average Humidity 62    
Maximum Humidity 89    
Minimum Humidity 52    
Precipitation  
Precipitation 0.00 in - - ()
Sea Level Pressure  
Sea Level Pressure 29.98 in    
Wind  
Wind Speed 6 mph (WNW)    
Max Wind Speed 12 mph    
Max Gust Speed 20 mph    
Visibility 10 miles    
Events Snow    
Averages and records for this station are not official NWS values.
T = Trace of Precipitation, MM = Missing Value Source: NWS Daily Summary

Daily Weather History Graph

Daily Weather History Graph

Search for Another Location

Airport:

Trip Planner

Search our weather history database for the weather conditions in past years. The results will help you decide how hot, cold, wet, or windy it might be!

Date:

Astronomy

Feb. 15, 2013 Rise Set
Actual Time 7:07 AM EST 5:43 PM EST
Civil Twilight 6:38 AM EST 6:12 PM EST
Nautical Twilight 6:05 AM EST 6:45 PM EST
Astronomical Twilight 5:32 AM EST 7:17 PM EST
Moon 9:33 AM EST (2/15) 11:51 PM EST (2/15)
Length of Visible Light 11h 33m
Length of Day
10h 35m
Waxing Crescent, 30% of the Moon is Illuminated
Feb 15
Waxing Crescent
Feb 17
First Quarter
Feb 25
Full
Mar 4
Last Quarter
Mar 11
New

Hourly Weather History & Observations

Time (EST) Temp. Windchill Dew Point Humidity Pressure Visibility Wind Dir Wind Speed Gust Speed Precip Events Conditions
12:54 AM 37.0 °F 33.3 °F 34.0 °F 89% 29.83 in 10.0 mi South 4.6 mph - 0.00 in   Mostly Cloudy
1:54 AM 41.0 °F 35.8 °F 33.1 °F 73% 29.83 in 10.0 mi SSW 8.1 mph 19.6 mph N/A   Mostly Cloudy
2:54 AM 39.0 °F 35.7 °F 30.9 °F 73% 29.84 in 10.0 mi Variable 4.6 mph - N/A   Mostly Cloudy
3:54 AM 39.0 °F 32.3 °F 26.1 °F 60% 29.84 in 10.0 mi SW 10.4 mph 19.6 mph N/A   Mostly Cloudy
4:54 AM 37.9 °F 32.7 °F 26.1 °F 62% 29.86 in 10.0 mi Variable 6.9 mph - N/A   Mostly Cloudy
5:54 AM 37.0 °F 34.5 °F 21.9 °F 54% 29.88 in 10.0 mi Variable 3.5 mph - N/A   Mostly Cloudy
7:54 AM 37.0 °F 31.0 °F 21.0 °F 52% 29.93 in 10.0 mi WSW 8.1 mph 18.4 mph N/A   Overcast
8:54 AM 37.0 °F 33.3 °F 23.0 °F 57% 29.96 in 10.0 mi Variable 4.6 mph - N/A   Overcast
9:54 AM 37.0 °F - 24.1 °F 59% 29.98 in 10.0 mi Calm Calm - N/A   Overcast
10:54 AM 37.9 °F 32.7 °F 25.0 °F 60% 29.99 in 10.0 mi Variable 6.9 mph 17.3 mph N/A   Overcast
11:54 AM 36.0 °F 29.6 °F 26.1 °F 67% 29.99 in 9.0 mi WNW 8.1 mph - 0.00 in Snow Light Snow
12:54 PM 37.9 °F 33.5 °F 25.0 °F 60% 29.98 in 10.0 mi Variable 5.8 mph 17.3 mph 0.00 in   Overcast
1:54 PM 37.9 °F 32.1 °F 25.0 °F 60% 29.99 in 10.0 mi West 8.1 mph 19.6 mph N/A   Overcast
2:54 PM 36.0 °F 28.0 °F 25.0 °F 64% 29.99 in 10.0 mi NW 11.5 mph 18.4 mph N/A   Overcast
3:54 PM 36.0 °F 32.1 °F 21.9 °F 57% 30.00 in 10.0 mi Variable 4.6 mph - N/A   Overcast
4:54 PM 35.1 °F 30.1 °F 19.0 °F 52% 30.02 in 10.0 mi WNW 5.8 mph - N/A   Overcast
5:54 PM 34.0 °F 26.6 °F 19.0 °F 54% 30.04 in 10.0 mi NW 9.2 mph - N/A   Overcast
6:54 PM 32.0 °F 25.6 °F 21.0 °F 64% 30.06 in 10.0 mi WNW 6.9 mph - N/A   Overcast
7:54 PM 30.0 °F 23.2 °F 18.0 °F 61% 30.08 in 10.0 mi NW 6.9 mph - N/A   Clear
8:54 PM 30.0 °F 22.4 °F 18.0 °F 61% 30.08 in 10.0 mi NW 8.1 mph - N/A   Mostly Cloudy
9:54 PM 28.9 °F 25.2 °F 18.0 °F 64% 30.08 in 10.0 mi West 3.5 mph - N/A   Scattered Clouds
10:54 PM 28.0 °F 18.1 °F 17.1 °F 63% 30.09 in 10.0 mi NNW 11.5 mph - N/A   Overcast
11:54 PM 27.0 °F 18.7 °F 16.0 °F 63% 30.09 in 10.0 mi NW 8.1 mph - N/A   Overcast